This demonstration page uses our WeatherBlox Daily Observations layout. Learn more.

Left ArrowRight Arrow

38.83388, -104.82136

Hourly Observations for January 20, 2022

Temp ( °F °C ) Dew Point ( °F °C ) Humidity (%) Winds ( mph kmh ) Pressure ( in mb ) Visibility ( mi km ) Precip ( " mm )
12:00 am 00:00 Mostly Cloudy with Snow 12 -11 10 -12 92 92 Calm 30.58 1036 0 0 0.00 0.00
12:07 am 00:07 Mostly Cloudy with Light Snow 12 -11 10 -12 92 92 Calm 30.58 1036 1 1 0.00 0.00
12:11 am 00:11 Mostly Cloudy with Snow 12 -11 10 -12 92 92 Calm 30.58 1036 3 5 0.00 0.00
12:24 am 00:24 Mostly Cloudy with Light Snow 12 -11 10 -12 92 92 Calm 30.57 1035 1 1 0.00 0.00
12:37 am 00:37 Mostly Cloudy with Snow 12 -11 10 -12 92 92 Calm 30.57 1035 3 5 0.00 0.00
12:40 am 00:40 Mostly Cloudy with Heavy Snow 12 -11 10 -12 92 92 Calm 30.57 1035 0 0 0.00 0.00
12:58 am 00:58 Mostly Cloudy with Heavy Snow 12 -11.1 10 -12.2 92 92 Calm 30.18 1022 0 0 0.00 0.00
1:16 am 01:16 Mostly Cloudy with Snow 12 -11 10 -12 92 92 Calm 30.18 1022 3 5 0.00 0.00
1:35 am 01:35 Mostly Cloudy with Light Snow 12 -11 10 -12 92 92 Calm 30.18 1022 1 1 0.00 0.00
1:58 am 01:58 Cloudy with Light Snow 12 -11 10 -12.1 92 92 Calm 30.18 1022 1 2 0.00 0.00
2:17 am 02:17 Cloudy 12 -11 10 -12 92 92 Calm 30.17 1022 7 11 0.00 0.00
2:19 am 02:19 Cloudy with Light Snow 12 -11 10 -12 92 92 Calm 30.17 1022 5 8 0.00 0.00
2:37 am 02:37 Mostly Cloudy with Snow 12 -11 10 -12 92 92 Calm 30.17 1022 1 1 0.00 0.00
2:38 am 02:38 Mostly Cloudy with Light Snow 12 -11 10 -12 92 92 Calm 30.17 1022 1 1 0.00 0.00
2:58 am 02:58 Mostly Cloudy with Light Snow 12 -11.3 10 -12.5 91 91 Calm 30.17 1022 1 2 0.00 0.00
3:15 am 03:15 Cloudy with Mist and Fog 12 -11 9 -13 85 85 Calm 30.16 1021 1 2 0.00 0.00
3:58 am 03:58 Cloudy with Mist and Fog 11 -11.7 9 -12.9 91 91 Calm 30.18 1022 2 2 0.00 0.00
4:04 am 04:04 Cloudy with Light Snow 10 -12 9 -13 92 92 Calm 30.18 1022 3 5 0.00 0.00
4:13 am 04:13 Cloudy with Mist and Fog 10 -12 9 -13 92 92 Calm 30.18 1022 2 3 0.00 0.00
4:43 am 04:43 Partly Cloudy 10 -12 9 -13 92 92 Calm 30.16 1022 10 16 0.00 0.00
4:53 am 04:53 Mostly Cloudy 10 -12 9 -13 92 92 Calm 30.16 1022 7 11 0.00 0.00
4:58 am 04:58 Mostly Cloudy 10 -12.1 8 -13.4 90 90 Calm 30.18 1022 7 11 0.00 0.00
5:43 am 05:43 Partly Cloudy 10 -12 7 -14 85 85 Calm 30.18 1022 8 13 0.00 0.00
5:53 am 05:53 Mostly Cloudy 10 -12 7 -14 85 85 Calm 30.19 1022 9 14 0.00 0.00
5:58 am 05:58 Mostly Cloudy 10 -12.4 7 -13.7 90 90 Calm 30.19 1022 9 14 0.00 0.00
6:03 am 06:03 Partly Cloudy 10 -12 7 -14 85 85 Calm 30.19 1022 10 16 0.00 0.00
6:58 am 06:58 Mostly Clear 9 -12.9 6 -14.4 89 89 Calm 30.19 1023 10 16 0.00 0.00
7:58 am 07:58 Sunny 13 -10.7 11 -11.9 91 91 Calm 30.19 1023 10 16 0.00 0.00
8:58 am 08:58 Sunny 19 -7 19 -7.4 97 97 Calm 30.16 1021 7 11 0.00 0.00
9:58 am 09:58 Sunny with Mist and Fog 22 -5.5 22 -5.5 100 100 Calm 30.15 1021 5 8 0.00 0.00
10:58 am 10:58 Partly Cloudy with Mist and Fog 23 -4.8 23 -4.8 100 100 Calm 30.13 1020 2 2 0.00 0.00
11:08 am 11:08 Mostly Cloudy with Mist and Fog 23 -5 23 -5 100 100 Calm 30.13 1020 1 2 0.00 0.00
11:18 am 11:18 Mostly Cloudy with Light Snow 23 -5 23 -5 100 100 Calm 30.12 1020 5 8 0.00 0.00
11:27 am 11:27 Mostly Cloudy with Mist and Fog 25 -4 25 -4 100 100 Calm 30.09 1019 7 11 0.00 0.00
11:42 am 11:42 Mostly Cloudy with Light Snow 25 -4 25 -4 100 100 Calm 30.08 1019 1 1 0.00 0.00
11:44 am 11:44 Mostly Cloudy with Snow 25 -4 25 -4 100 100 Calm 30.08 1019 1 1 0.00 0.00
11:50 am 11:50 Mostly Cloudy with Heavy Snow 23 -5 23 -5 100 100 Calm 30.10 1019 0 0 0.00 0.00
11:52 am 11:52 Mostly Cloudy with Freezing Fog 23 -5 23 -5 100 100 Calm 30.09 1019 0 0 0.00 0.00
11:58 am 11:58 Mostly Cloudy with Freezing Fog 23 -5 23 -5 100 100 Calm 30.09 1019 0 0 0.00 0.00
12:58 pm 12:58 Mostly Cloudy with Freezing Fog 22 -5.4 22 -5.4 100 100 Calm 30.06 1018 0 0 0.00 0.00
1:28 pm 13:28 Mostly Cloudy with Mist and Fog 23 -5 23 -5 100 100 Calm 30.04 1017 1 2 0.00 0.00
1:43 pm 13:43 Mostly Cloudy with Mist and Fog 25 -4 25 -4 100 100 Calm 30.04 1017 1 1 0.00 0.00
1:58 pm 13:58 Mostly Cloudy with Mist and Fog 25 -3.7 25 -3.7 100 100 Calm 30.00 1016 5 8 0.00 0.00
2:58 pm 14:58 Mostly Cloudy with Freezing Fog 23 -4.8 23 -4.8 100 100 Calm 30.01 1016 3 5 0.00 0.00
3:58 pm 15:58 Mostly Cloudy with Mist and Fog 22 -5.4 22 -5.4 100 100 S 5 7 30.01 1016 4 6 0.00 0.00
4:03 pm 16:03 Partly Cloudy 23 -5 23 -5 100 100 SW 6 9 30.01 1016 10 16 0.00 0.00
4:58 pm 16:58 Sunny 23 -5.2 23 -5.2 100 100 Calm 30.02 1017 10 16 0.00 0.00
5:58 pm 17:58 Clear 22 -5.6 22 -5.6 100 100 Calm 30.01 1016 10 16 0.00 0.00
6:58 pm 18:58 Clear 22 -5.6 22 -5.6 100 100 Calm 30.01 1016 10 16 0.00 0.00
7:58 pm 19:58 Clear 22 -5.5 21 -5.9 97 97 WNW 5 7 29.98 1015 10 16 0.00 0.00
8:58 pm 20:58 Clear 24 -4.7 16 -8.8 73 73 N 5 7 29.94 1014 10 16 0.00 0.00
9:58 pm 21:58 Clear 24 -4.6 15 -9.6 68 68 Calm 29.89 1012 10 16 0.00 0.00
10:58 pm 22:58 Clear 26 -3.3 14 -10.2 59 59 W 3 6 29.85 1011 10 16 0.00 0.00
11:58 pm 23:58 Clear 28 -2.4 12 -11.2 51 51 Calm 29.80 1009 10 16 0.00 0.00

Powered by AerisWeather